sat.trackr.live / text

‹ back to catalog

STARLINK-3723

NORAD 52138 · 2022-029BC

PAYLOAD ACTIVE UNKNOWN

§ Identity

Operator
Country
US
Launch date
2022-03-19
Launch site
AFETR
Launch vehicle
Mass (kg)
RCS (m²)

Purposes: comms

External: N2YO · Heavens-Above · Gunter

§ Orbital elements

Epoch: 2026-09-20T00:00:51.274944Z

Period
93.90 min
Inclination
53.1591°
Eccentricity
0.0001947
Mean motion
15.33566075 rev/d
Perigee alt
463.9 km
Apogee alt
466.5 km
Semi-major
6,843.3 km
B*
3.7169e-4
RAAN
271.8828°
Arg perigee
34.5639°
Mean anomaly
325.5490°
Rev number
25,033

§ Raw data

STARLINK-37231 52138U 22029BC  26263.00059346  .00011877  00000+0  37169-3 0  99922 52138  53.1591 271.8828 0001947  34.5639 325.5490 15.33566075250334

JSON: /api/v1/satellites/52138 · /tle

For live sub-satellite position, see the globe view (requires WebGL).

§ Visibility from observer

Set your observer location to see the next 7 days of passes ≥ 10°. The values pass through the URL so the page stays shareable.

No JS? Fill the form by hand. The geolocation button needs JavaScript.